Weather in Brusyany

Russia / Samara Oblast     53°12′23″N   49°23′45″E
temp.,
°C
wind,
m/s
gust,
m/s
humid.,
%
clouds,
%
prec.,
mm/h
press.,
hPa
HPBL,
m
17 may, mon
mon1701:00+18e225511 0.0 101714
04:00+18ese225568 0.0 101742
07:00+20se265773 0.0 1018177
10:00+26sse454314 0.0 1018395
13:00+30s45315 0.0 10181663
16:00+30ssw44265 0.0 10173357
19:00+27ssw12405 0.0 101711
22:00+21se11415 0.0 101711
18 may, tue
tue1801:00+19e11424 0.0 101711
04:00+18e11434 0.0 101711
07:00+21e11485 0.0 101750
10:00+26se45334 0.0 1017449
13:00+30se34235 0.0 10171633
16:00+31sse22210 0.0 10162926
19:00+25nne46445 0.0 101678
22:00+22ene46321 0.0 101671
19 may, wed
wed1901:00+20ene48370 0.0 1016103
04:00+18e512615 0.0 1016206
07:00+20e613705 0.0 1016358
10:00+25ese68495 0.0 1016641
13:00+28ese67395 0.0 10151509
16:00+28e67390 0.0 10152174
19:00+25e612470 0.0 1014318
22:00+22ese715470 0.0 1016540
20 may, thu
thu2001:00+19ese715500 0.0 1017534
04:00+17se714540 0.0 1018517
07:00+17se613610 0.0 1018524
10:00+21se810470 0.0 1018946
13:00+24se79340 0.0 10181698
16:00+25sse68350 0.0 10181974
19:00+21se48495 0.0 1018210
22:00+17ese3351100 0.0 101947
21 may, fri
fri2101:00+15ese375732 0.0 1019105
04:00+14e33600 0.0 102035
07:00+16se24590 0.0 1020170
10:00+22se56454 0.0 1020635
13:00+25s45330 0.0 10202105
16:00+26ssw33310 0.0 10202385
19:00+24sse1145100 0.0 102011
22:00+18ese22445 0.0 102111